Nagpur Sonegaon, India

9:36 AM IST on August 22, 2017 (GMT +0530)
Nagpur

Weather History for VANP - May, 2013

Change the Weather History Date:

Wednesday, May 1, 2013

  Actual Average Record
Temperature  
Mean Temperature 96 °F -  
Max Temperature 114 °F 108 °F - ()
Min Temperature 78 °F 82 °F - ()
Cooling Degree Days 31    
Growing Degree Days 46 (Base 50)    
Moisture  
Dew Point 50 °F    
Average Humidity 17    
Maximum Humidity 34    
Minimum Humidity 9    
Precipitation  
Precipitation 0.00 in 0.03 in - ()
Sea Level Pressure  
Sea Level Pressure 29.65 in    
Wind  
Wind Speed 3 mph ()    
Max Wind Speed 9 mph    
Max Gust Speed -    
Visibility 3.3 miles    
Events      
T = Trace of Precipitation, MM = Missing Value Source: Averaged Metar Reports

Daily Weather History Graph

Daily Weather History Graph

Search for Another Location

Airport or City:

Trip Planner

Search our weather history database for the weather conditions in past years. The results will help you decide how hot, cold, wet, or windy it might be!

Date:

Astronomy

May. 01, 2013 Rise Set
Actual Time 5:43 AM IST 6:38 PM IST
Civil Twilight 5:20 AM IST 7:01 PM IST
Nautical Twilight 4:52 AM IST 7:29 PM IST
Astronomical Twilight 4:24 AM IST 7:57 PM IST
Moon 12:12 AM IST (5/2) 10:52 AM IST (5/1)
Length of Visible Light 13h 41m
Length of Day
12h 55m
Waning Gibbous, 63% of the Moon is Illuminated
May 1
Waning Gibbous
May 2
Last Quarter
May 10
New
May 18
First Quarter
May 25
Full

Hourly Weather History & Observations

Time (IST) Temp. Heat Index Dew Point Humidity Pressure Visibility Wind Dir Wind Speed Gust Speed Precip Events Conditions
12:10 AM 96.8 °F 94.4 °F 53.6 °F 23% 29.71 in 3.7 mi Calm Calm - N/A   Partly Cloudy
1:10 AM 93.2 °F - 51.8 °F 24% 29.68 in 3.7 mi Calm Calm - N/A   Partly Cloudy
2:10 AM 89.6 °F - 51.8 °F 27% 29.68 in 3.7 mi SW 2.3 mph - N/A   Partly Cloudy
2:30 AM 84 °F - 60 °F 34% 29.62 in 2 mi Calm Calm - -   Scattered Clouds
3:10 AM 89.6 °F 88.1 °F 57.2 °F 33% 29.68 in 3.7 mi NNW 4.6 mph - N/A   Partly Cloudy
3:40 AM 89.6 °F 87.7 °F 55.4 °F 31% 29.68 in 3.7 mi WSW 4.6 mph - N/A   Partly Cloudy
4:10 AM 89.6 °F - 51.8 °F 27% 29.68 in 3.7 mi Calm Calm - N/A   Partly Cloudy
5:30 AM 80 °F - 57 °F 34% 29.65 in 2 mi WSW 4.6 mph - -   Scattered Clouds
6:10 AM 87.8 °F - 50.0 °F 27% 29.71 in 3.7 mi Calm Calm - N/A   Unknown
6:40 AM 91.4 °F - 51.8 °F 26% 29.71 in 3.7 mi WNW 4.6 mph - N/A   Unknown
7:10 AM 93.2 °F - 51.8 °F 24% 29.74 in 3.7 mi WNW 4.6 mph - N/A   Unknown
7:40 AM 98.6 °F - 48.2 °F 18% 29.74 in 3.7 mi WNW 4.6 mph - N/A   Unknown
8:10 AM 102.2 °F - 50.0 °F 17% 29.74 in 3.7 mi WNW 9.2 mph - N/A   Unknown
8:30 AM 100 °F - 53 °F 13% 29.66 in 2 mi WNW 6.9 mph - -  
8:40 AM 105.8 °F - 48.2 °F 14% 29.74 in 3.7 mi NW 9.2 mph - N/A   Unknown
9:10 AM 105.8 °F - 48.2 °F 14% 29.74 in 3.7 mi WNW 2.3 mph - N/A   Unknown
9:40 AM 107.6 °F - 48.2 °F 14% 29.74 in 3.7 mi NNW 3.5 mph - N/A   Unknown
10:10 AM 109.4 °F - 48.2 °F 13% 29.74 in 3.7 mi West 3.5 mph - N/A   Unknown
10:40 AM 111.2 °F - 41.0 °F 9% 29.74 in 3.7 mi NNW 6.9 mph - N/A   Unknown
11:10 AM 113.0 °F - 48.2 °F 12% 29.71 in 3.7 mi West 5.8 mph - N/A   Unknown
11:30 AM 109 °F - 53 °F 9% 29.61 in 2 mi NNW 3.5 mph - -  
11:40 AM 113.0 °F - 48.2 °F 12% 29.71 in 3.7 mi NW 3.5 mph - N/A   Unknown
12:10 PM 116.6 °F - 50.0 °F 11% 29.68 in 3.7 mi East 4.6 mph - N/A   Unknown
12:40 PM 116.6 °F - 48.2 °F 11% 29.68 in 3.7 mi NE 5.8 mph - N/A   Unknown
1:10 PM 116.6 °F - 46.4 °F 10% 29.65 in 3.7 mi WNW 8.1 mph - N/A   Partly Cloudy
1:40 PM 116.6 °F - 48.2 °F 11% 29.74 in 3.7 mi WNW 4.6 mph - N/A   Partly Cloudy
2:10 PM 118.4 °F - 48.2 °F 10% 29.62 in 3.7 mi NNW 5.8 mph - N/A   Partly Cloudy
2:30 PM 114 °F - 55 °F 9% 29.50 in 2 mi East 9.2 mph - -   Scattered Clouds
2:40 PM 116.6 °F - 50.0 °F 11% 29.62 in 3.7 mi WNW 8.1 mph - N/A   Partly Cloudy
3:10 PM 118.4 °F - 46.4 °F 9% 29.59 in 3.7 mi NNW 6.9 mph - N/A   Partly Cloudy
3:40 PM 118.4 °F - 48.2 °F 10% 29.59 in 3.7 mi West 6.9 mph - N/A   Partly Cloudy
4:10 PM 116.6 °F - 46.4 °F 10% 29.56 in 3.7 mi WNW 6.9 mph - N/A   Partly Cloudy
4:40 PM 118.4 °F - 44.6 °F 9% 29.56 in 3.7 mi NW 6.9 mph - N/A   Partly Cloudy
5:10 PM 116.6 °F - 44.6 °F 9% 29.56 in 3.7 mi NW 5.8 mph - N/A   Partly Cloudy
5:30 PM 108 °F - 55 °F 10% 29.47 in 2 mi NW 9.2 mph - -   Scattered Clouds
5:40 PM 107.6 °F - 44.6 °F 12% 29.56 in 3.7 mi NNW 6.9 mph - N/A   Partly Cloudy
6:10 PM 114.8 °F - 46.4 °F 10% 29.59 in 3.7 mi NW 6.9 mph - N/A   Partly Cloudy
6:40 PM 111.2 °F - 48.2 °F 12% 29.59 in 3.7 mi NW 4.6 mph - N/A   Partly Cloudy
7:10 PM 109.4 °F - 46.4 °F 12% 29.59 in 3.1 mi WNW 3.5 mph - N/A   Haze
8:30 PM 91 °F - 57 °F 22% 29.57 in 1 mi SW 2.3 mph - -   Haze
9:10 PM 102.2 °F - 46.4 °F 15% 29.62 in 3.1 mi SW 3.5 mph - N/A   Haze
10:10 PM 98.6 °F - 48.2 °F 18% 29.65 in 3.1 mi WSW 3.5 mph - N/A   Haze
10:40 PM 98.6 °F - 48.2 °F 18% 29.65 in 3.1 mi Calm Calm - N/A   Haze
11:10 PM 100.4 °F - 48.2 °F 17% 29.65 in 3.1 mi Calm Calm - N/A   Haze
11:30 PM 90 °F - 57 °F 23% 29.57 in 1 mi Calm Calm - -   Haze